{"data":{"norad_id":58839,"intl_designator":"2024-017P","name":"STARLINK-31250","alt_names":[],"object_type":"PAYLOAD","status":"ACTIVE","operator":null,"country":"US","launch_date":"2024-01-24","launch_site_code":"AFWTR","launch_vehicle":null,"mission":null,"orbit_class":"UNKNOWN","rcs_meters":null,"size_class":null,"mass_kg":null,"dimensions":null,"purposes":["comms"],"wikipedia_slug":null,"has_3d_model":false,"image_url":null,"decayed_at":null,"tle_current":{"epoch":"2026-05-24T20:15:29.015712Z","epoch_age_seconds":98987,"freshness":"FRESH","line1":"1 58839U 24017P   26144.84408583  .00000243  00000+0  18329-4 0  9999","line2":"2 58839  53.1605 200.0906 0001061  76.6483 283.4638 15.34390894131818","mean_motion":15.34390894,"eccentricity":0.0001061,"inclination_deg":53.1605,"raan_deg":200.0906,"arg_perigee_deg":76.6483,"mean_anomaly_deg":283.4638,"bstar":1.8329e-5,"rev_number":13181,"period_min":93.848315030472,"perigee_km":462.00448927087,"apogee_km":463.45612131305,"semimajor_km":6840.867305292,"source":"CELESTRAK","updated_at":"2026-05-25T13:38:18.755291Z"}}}